Location: Artiguedieu
(43.5000°N, 0.5454°E)
Time: 12:38:20
(UTC+00:00)

RS-44 - Visible Passes

Search period start: 20 September 2021 00:00
Search period end: 30 September 2021 00:00
Orbit: 1175 x 1510 km, 82.5° (Epoch: 19 September)

Date Brightness Start Highest point End Pass type
(mag) Time Alt. Az. Time Alt. Az. Time Alt. Az.
20 Sep ? 01:50:52 10° ESE 01:56:47 20° ENE 02:02:45 10° NE visible
20 Sep ? 03:40:11 10° S 03:49:01 90° W 03:57:59 10° N visible
21 Sep ? 02:12:39 10° SE 02:20:04 32° E 02:27:31 10° NNE visible
21 Sep ? 04:04:11 10° SSW 04:12:55 63° WNW 04:21:46 10° N visible
22 Sep ? 02:35:29 11° SSE 02:43:31 47° E 02:51:51 10° NNE visible
22 Sep ? 04:28:43 10° SW 04:37:01 43° WNW 04:45:23 10° N visible
23 Sep ? 01:11:14 10° ESE 01:15:21 14° ENE 01:19:28 10° NE visible
23 Sep ? 03:00:19 19° S 03:07:08 70° E 03:15:56 10° NNE visible
23 Sep ? 04:53:51 10° WSW 05:01:18 29° WNW 05:08:48 10° N visible
24 Sep ? 01:32:22 11° SE 01:38:30 23° ENE 01:44:55 10° NNE visible
24 Sep ? 03:25:01 25° SSW 03:30:54 82° W 03:39:51 10° N visible
25 Sep ? 01:56:59 21° SE 02:01:49 35° E 02:09:32 10° NNE visible
25 Sep ? 03:49:38 26° SW 03:54:52 57° WNW 04:03:35 10° N visible
26 Sep ? 02:21:30 33° SE 02:25:19 53° E 02:33:47 10° NNE visible
26 Sep ? 04:14:09 23° WSW 04:19:00 39° WNW 04:27:08 10° N visible
27 Sep ? 00:53:19 12° ESE 00:57:01 16° ENE 01:01:53 10° NE visible
27 Sep ? 02:45:58 47° S 02:49:00 77° E 02:57:49 10° N visible
27 Sep ? 04:38:36 17° WSW 04:43:20 26° WNW 04:50:27 10° N visible
28 Sep ? 01:17:42 23° ESE 01:20:14 26° E 01:27:01 10° NNE visible
28 Sep ? 03:10:21 52° SSW 03:12:49 75° W 03:21:40 10° N visible
28 Sep ? 05:03:00 11° W 05:07:53 17° WNW 05:13:20 10° NNW visible
29 Sep ? 01:42:02 37° ESE 01:43:36 39° E 01:51:31 10° NNE visible
29 Sep ? 03:34:41 44° WSW 03:36:49 51° WNW 03:45:20 10° N visible
